Location: Wheeling
(40.0640°N, 80.7210°W)
Time: 14:16:02
(UTC-05:00)

CUTE 1.7 + AOD 2 - Pass Details

Date: 29 October 2021
Orbit: 592 x 610 km, 97.6° (Epoch: 01 December)

Event Time Altitude Azimuth Distance (km) Brightness Sun altitude
Rises 06:31:23 0° 357° (N) 2,881 ? -15.4°
Reaches altitude 10° 06:33:57 10° 342° (NNW) 1,970 ? -14.9°
Enters shadow 06:37:04 22° 296° (WNW) 1,354 ? -14.3°
